Portada
METAR-TAF:

METAR-TAF

Aeroports :

Yamagata, Japó

latitud: 38-25N, longitud: 140-22E, altitud: 105 m

Observació

L'informe es va fer fa 2 hores i 36 minuts, a les 10:00 UTC
Vent 3 kt del Nord
Temperatura 2°C
Humitat 93%
Pressió 1026 hPa
Visibilitat 10 km o més
Escasses núvols a una alçada de 5000 ft
Núvols disperses a una alçada de 7000 ft

METAR: RJSC 131000Z 01003KT 9999 FEW050 SCT070 02/01 Q1026

Hora: 21:36 (12:36 UTC)


TAF: manca

Observacions i pronòstics meteorològics de més de 4000 aeroports (METAR i TAF).

Les estacions disponibles són els punts grocs i vermells al mapa.

Posi el ratolí al punt desitjat per veure el nom de l'estació.

Feu clic per veure les observacions i els pronòstics meteorològics.

Per canviar el mapa: feu clic els botons verds amb una creu de color negre per apropar; al botó verd amb un guió per allunyar la imatge; o en les fletxes verdes per a mapes adjacents.


METAR-TAF: